Waarnemingen

Advertentie
Mijn weer
Putbus, Duitsland (10093): temperatuur & dauwpunt: 05.12.2018 17:00:00 - 11.12.2018 17:00:00 (CET)Putbus, Duitsland (10093): temperatuur 5cm & temperatuur -5cm: 05.12.2018 17:00:00 - 11.12.2018 17:00:00 (CET)Putbus, Duitsland (10093): temperatuur -20cm & temperatuur -100cm: 05.12.2018 17:00:00 - 11.12.2018 17:00:00 (CET)Putbus, Duitsland (10093): windsnelheid & windstoten: 05.12.2018 17:00:00 - 11.12.2018 17:00:00 (CET)Putbus, Duitsland (10093): windrichting: 05.12.2018 17:00:00 - 11.12.2018 17:00:00 (CET)Putbus, Duitsland (10093): luchtdruk: 05.12.2018 17:00:00 - 11.12.2018 17:00:00 (CET)Putbus, Duitsland (10093): zicht: 05.12.2018 17:00:00 - 11.12.2018 17:00:00 (CET)Putbus, Duitsland (10093): Zonneschijnduur: 05.12.2018 17:00:00 - 11.12.2018 17:00:00 (CET)Putbus, Duitsland (10093): neerslag: 05.12.2018 17:00:00 - 11.12.2018 17:00:00 (CET)
Datum & Tijd tt [°C] td [°C] tt 5cm [°C] tt -5cm [°C] tt -20cm [°C] tt -100cm [°C] ff [km/u] ff [kn] fx [km/u] fx [kn] dd ppp [hPa] vv [km] sd [min] rr [mm]
11.12.2018 17:00:00 4,1 1,2 3,0 3,1 4,4 7,5 19 11 35 19 N 1016,5 59 0 0,0
11.12.2018 16:00:00 4,5 1,8 3,7 3,8 4,4 7,6 20 11 32 17 N 1015,9 70 0 0,0
11.12.2018 15:00:00 4,4 2,1 3,6 3,9 4,3 7,6 18 10 30 16 N 1015,2 21 0 0,0
11.12.2018 14:00:00 4,1 2,4 3,5 4,0 4,3 7,6 19 11 36 19 N 1014,6 13 0 -
11.12.2018 13:00:00 4,0 2,0 3,5 3,9 4,2 7,6 22 12 32 17 N 1013,9 - 0 -
11.12.2018 12:00:00 4,1 2,2 3,7 3,7 4,1 7,6 14 8 30 16 N 1013,5 57 0 0,1
11.12.2018 11:00:00 3,8 2,2 3,4 3,4 4,0 7,6 16 9 28 15 N 1013,0 8 0 0,0
11.12.2018 10:00:00 3,9 1,9 3,5 2,9 4,0 7,6 13 7 24 13 NNW 1012,5 36 0 0,0
11.12.2018 09:00:00 3,4 0,3 2,8 2,4 4,1 7,6 13 7 27 15 NNW 1011,8 13 0 0,0
11.12.2018 08:00:00 2,8 -1,1 1,9 2,3 4,3 7,6 18 10 42 23 N 1011,1 70 0 0,0
11.12.2018 07:00:00 3,2 -1,1 2,5 2,6 4,3 7,6 26 14 45 24 N 1010,2 70 0 0,0
11.12.2018 06:00:00 3,7 -0,4 3,2 3,0 4,4 7,6 27 14 44 24 N 1009,0 61 0 0,0
11.12.2018 05:00:00 3,8 0,5 2,9 3,2 4,4 7,6 23 12 39 21 N 1008,1 18 0 0,0
11.12.2018 04:00:00 3,9 1,1 3,2 3,3 4,5 7,6 21 11 36 20 NNW 1007,1 67 0 0,0
11.12.2018 03:00:00 3,2 2,0 2,7 3,4 4,5 7,6 22 12 44 24 NNW 1006,4 26 0 0,5
11.12.2018 02:00:00 4,1 2,3 3,4 3,6 4,5 7,6 28 15 49 26 NW 1005,6 29 0 0,4
11.12.2018 01:00:00 4,1 2,2 3,3 3,6 4,5 7,6 30 16 51 28 WNW 1005,3 16 0 0,3
11.12.2018 00:00:00 5,4 1,9 4,4 3,7 4,5 7,6 35 19 56 30 WNW 1005,2 26 0 0,0
10.12.2018 23:00:00 5,1 2,3 4,6 3,6 4,5 7,6 26 14 42 23 W 1005,3 23 0 0,0
10.12.2018 22:00:00 5,2 1,9 4,7 3,4 4,5 7,6 29 16 45 24 WNW 1005,3 34 0 0,0
10.12.2018 21:00:00 4,9 1,8 4,3 3,1 4,6 7,6 26 14 39 21 WNW 1005,2 34 0 0,0
10.12.2018 20:00:00 4,7 1,6 3,8 3,1 4,7 7,6 22 12 36 19 WNW 1005,1 37 0 0,0
10.12.2018 19:00:00 4,7 1,1 3,8 3,0 4,8 7,6 22 12 39 21 WNW 1005,1 43 0 0,0
10.12.2018 18:00:00 4,6 1,0 3,2 3,3 4,9 7,6 19 11 40 22 WNW 1004,7 35 0 0,0
10.12.2018 17:00:00 4,6 1,9 3,5 3,7 5,0 7,6 28 15 44 24 W 1004,4 40 0 0,0
10.12.2018 16:00:00 4,2 2,1 3,1 3,8 5,0 7,6 31 17 46 25 W 1004,3 3,0 0 0,1
10.12.2018 15:00:00 5,0 1,8 4,2 4,2 5,0 7,6 31 17 55 30 W 1004,2 35 0 0,0
10.12.2018 14:00:00 5,3 1,5 4,5 4,6 5,0 7,6 27 15 45 25 W 1004,1 31 1 0,0
10.12.2018 13:00:00 5,4 1,6 5,3 4,8 4,9 7,6 29 15 48 26 W 1004,3 35 1 0,0
10.12.2018 12:00:00 5,1 1,8 4,8 4,5 4,8 7,6 31 17 44 24 W 1004,3 26 0 0,1
10.12.2018 11:00:00 5,1 2,1 4,4 4,3 4,8 7,6 28 15 46 25 W 1004,1 41 1 0,2
10.12.2018 10:00:00 5,2 1,9 4,9 3,9 4,8 7,6 30 16 51 28 W 1003,6 28 0 0,0
10.12.2018 09:00:00 5,0 1,6 4,6 3,6 4,8 7,6 29 16 49 26 W 1003,0 30 0 0,0
10.12.2018 08:00:00 5,1 1,2 4,6 3,6 4,8 7,6 27 14 49 26 WNW 1002,5 29 0 0,0
10.12.2018 07:00:00 5,4 0,9 4,8 3,3 4,9 7,6 29 16 49 27 WNW 1001,8 32 0 0,0
10.12.2018 06:00:00 4,6 1,2 3,1 3,4 5,0 7,6 31 17 55 30 WNW 1001,3 32 0 0,0
10.12.2018 05:00:00 5,2 0,8 4,3 3,3 5,1 7,6 24 13 46 25 WNW 1000,7 38 0 0,0
10.12.2018 04:00:00 4,8 1,2 3,9 3,4 5,2 7,6 26 14 44 24 WNW 1000,1 30 0 0,0
10.12.2018 03:00:00 5,2 1,8 4,6 3,8 5,3 7,6 28 15 42 23 WNW 999,4 29 0 0,0
10.12.2018 02:00:00 4,8 3,0 4,4 3,2 5,5 7,6 18 10 28 15 W 998,9 45 0 0,0
10.12.2018 01:00:00 4,1 1,6 2,2 3,0 5,7 7,5 18 10 34 19 W 998,3 52 0 0,0
10.12.2018 00:00:00 4,4 1,5 3,1 3,9 5,9 7,5 20 11 45 24 WNW 997,7 55 0 0,0
09.12.2018 23:00:00 5,0 0,6 4,3 4,5 6,0 7,5 28 15 49 26 NW 996,2 56 0 0,0
09.12.2018 22:00:00 5,7 2,6 5,1 5,3 6,1 7,5 29 16 46 25 NW 994,5 51 0 0,0
09.12.2018 21:00:00 5,9 4,5 5,4 5,5 6,2 7,5 23 12 40 22 WNW 992,8 17 0 0,0
09.12.2018 20:00:00 5,7 4,4 5,0 5,6 6,2 7,5 25 14 42 23 WNW 991,4 15 0 1,3
09.12.2018 19:00:00 6,3 4,5 5,4 5,8 6,3 7,5 26 14 36 20 W 990,4 36 0 0,0
09.12.2018 18:00:00 6,3 5,3 5,7 6,0 6,3 7,5 22 12 41 22 W 989,6 33 0 0,6
09.12.2018 17:00:00 6,5 5,3 5,9 6,0 6,3 7,5 19 11 36 19 W 989,2 6 0 0,1
09.12.2018 16:00:00 6,8 4,9 6,3 6,1 6,4 7,5 20 11 35 19 WZW 988,8 48 0 0,0
09.12.2018 15:00:00 6,8 5,1 5,8 6,7 6,3 7,5 25 13 38 20 W 988,2 42 0 0,0
09.12.2018 14:00:00 6,8 5,6 6,4 6,9 6,2 7,5 26 14 39 21 W 987,7 44 0 0,4
09.12.2018 13:00:00 6,8 5,8 6,5 6,8 6,1 7,5 20 11 36 19 W 987,1 26 0 0,4
09.12.2018 12:00:00 6,8 5,4 6,5 6,5 6,0 7,5 24 13 38 20 WZW 986,9 12 0 0,0
09.12.2018 11:00:00 6,8 5,2 6,8 6,3 5,9 7,5 22 12 40 21 WZW 986,5 41 0 0,0
09.12.2018 10:00:00 6,7 5,4 6,7 6,0 5,8 7,5 26 14 42 23 W 985,9 43 0 0,0
09.12.2018 09:00:00 6,4 5,5 6,1 5,6 5,8 7,5 21 12 31 17 W 985,1 26 0 0,0
09.12.2018 08:00:00 6,0 5,3 5,8 5,4 5,8 7,5 21 11 30 16 W 984,3 26 0 0,2
09.12.2018 07:00:00 5,8 5,5 5,6 5,4 5,8 7,5 19 10 32 17 W 983,7 4,0 0 0,1
09.12.2018 06:00:00 5,7 5,5 5,6 5,4 5,8 7,4 7 4 13 7 WNW 983,1 6 0 0,1
09.12.2018 05:00:00 5,2 5,2 5,1 5,3 5,8 7,4 8 4 13 7 ZZO 983,3 4,4 0 1,0
09.12.2018 04:00:00 5,3 5,2 5,1 5,2 5,9 7,4 7 4 25 14 ZZO 984,4 3,7 0 2,9
09.12.2018 03:00:00 5,7 4,9 5,2 5,2 5,9 7,4 21 11 42 23 ZZW 985,9 3,4 0 0,7
09.12.2018 02:00:00 6,4 3,9 6,0 5,0 6,0 7,4 20 11 34 18 ZZW 986,5 29 0 0,0
09.12.2018 01:00:00 6,3 4,0 5,5 4,8 6,2 7,4 23 12 42 23 ZZW 987,7 30 0 0,0
09.12.2018 00:00:00 6,5 4,2 5,3 5,3 6,3 7,4 21 11 51 28 ZW 988,7 35 0 0,0
08.12.2018 23:00:00 7,1 5,1 6,3 6,1 6,3 7,4 24 13 45 25 ZW 989,3 34 0 0,4
08.12.2018 22:00:00 6,9 6,0 6,3 6,2 6,2 7,4 27 14 49 27 ZW 989,9 1,6 0 0,8
08.12.2018 21:00:00 7,1 5,5 6,4 6,2 6,2 7,4 26 14 56 30 ZW 990,2 13 0 0,3
08.12.2018 20:00:00 7,3 5,6 6,4 6,2 6,2 7,4 23 12 46 25 ZW 990,2 9 0 0,3
08.12.2018 19:00:00 7,0 5,8 6,4 6,1 6,2 7,3 23 12 51 27 ZW 990,5 17 0 0,1
08.12.2018 18:00:00 6,8 5,4 6,3 6,0 6,2 7,3 26 14 46 25 ZZW 991,1 17 0 0,1
08.12.2018 17:00:00 6,8 5,1 6,1 6,0 6,2 7,3 26 14 49 26 ZW 991,5 9 0 0,1
08.12.2018 16:00:00 7,2 4,6 7,0 6,0 6,2 7,3 27 14 51 28 ZW 992,1 47 0 0,0
08.12.2018 15:00:00 6,5 4,7 6,4 6,0 6,2 7,3 26 14 46 25 ZZW 992,5 26 0 0,0
08.12.2018 14:00:00 6,1 4,6 5,7 6,0 6,1 7,3 26 14 47 25 ZZW 993,0 8 0 0,0
08.12.2018 13:00:00 6,8 3,9 6,7 5,9 6,1 7,3 22 12 46 25 ZW 993,4 29 0 0,0
08.12.2018 12:00:00 6,2 3,8 5,8 5,7 6,1 7,3 24 13 48 26 ZW 994,0 24 0 0,0
08.12.2018 11:00:00 5,6 3,8 5,2 5,3 6,2 7,3 26 14 47 26 ZW 994,6 26 0 1,2
08.12.2018 10:00:00 5,5 3,3 4,5 5,1 6,3 7,2 26 14 48 26 ZW 995,8 5 0 0,1
08.12.2018 09:00:00 5,5 2,7 5,4 4,9 6,4 7,2 23 12 37 20 ZZW 996,0 38 0 0,0
08.12.2018 08:00:00 5,5 2,8 5,2 4,9 6,6 7,2 20 11 42 23 ZW 996,6 29 0 0,0
08.12.2018 07:00:00 5,9 2,9 5,2 5,3 6,8 7,2 26 14 48 26 WZW 996,1 27 0 0,0
08.12.2018 06:00:00 6,3 3,2 5,9 5,6 7,0 7,2 34 18 53 28 W 995,8 31 0 0,0
08.12.2018 05:00:00 6,6 4,1 6,0 6,1 7,2 7,2 32 17 49 26 WZW 995,2 26 0 0,0
08.12.2018 04:00:00 6,6 4,2 5,8 6,5 7,4 7,2 29 16 51 28 W 994,8 33 0 0,1
08.12.2018 03:00:00 6,8 4,8 6,1 6,9 7,6 7,2 35 19 55 30 W 994,1 23 0 0,2
08.12.2018 02:00:00 6,8 5,4 6,2 7,7 7,6 7,2 42 23 90 49 W 992,8 10 0 0,3
08.12.2018 01:00:00 9,3 8,7 9,0 8,6 7,6 7,2 18 10 32 18 ZZW 991,1 8 0 0,3
08.12.2018 00:00:00 9,5 9,2 9,2 8,7 7,6 7,2 17 9 36 19 ZZW 991,4 13 0 0,0
07.12.2018 23:00:00 9,6 9,4 9,4 8,8 7,6 7,2 16 9 32 18 ZZW 992,0 10 0 0,6
07.12.2018 22:00:00 9,8 9,7 9,6 8,8 7,5 7,1 15 8 31 17 ZZW 992,8 4,2 0 0,1
07.12.2018 21:00:00 9,9 9,8 9,7 8,9 7,5 7,1 15 8 28 15 ZZW 993,6 8 0 0,3
07.12.2018 20:00:00 9,9 9,9 9,8 8,9 7,4 7,1 14 8 29 15 ZZW 994,6 3,6 0 0,3
07.12.2018 19:00:00 9,9 9,9 9,7 8,9 7,4 7,1 15 8 28 15 ZZW 995,8 3,8 0 1,4
07.12.2018 18:00:00 9,9 9,9 9,8 8,9 7,3 7,1 16 8 26 14 ZZW 996,6 3,4 0 0,4
07.12.2018 17:00:00 10,0 10,0 9,9 9,0 7,3 7,1 16 8 27 15 ZZW 997,6 4,7 0 1,5
07.12.2018 16:00:00 9,9 9,8 9,8 9,0 7,2 7,1 14 8 26 14 ZZW 998,7 2,0 0 0,4
07.12.2018 15:00:00 10,2 10,2 10,0 9,2 7,0 7,1 13 7 26 14 ZZW 999,6 8 0 0,8
07.12.2018 14:00:00 10,5 10,4 10,4 9,3 6,8 7,1 15 8 24 13 ZZW 1000,8 1,9 0 0,1
07.12.2018 13:00:00 10,5 10,5 10,4 9,3 6,6 7,2 12 7 24 13 ZW 1001,8 6 0 0,2
07.12.2018 12:00:00 10,4 10,3 10,4 9,1 6,4 7,2 12 7 22 12 ZW 1003,0 3,3 0 0,0
07.12.2018 11:00:00 10,2 10,1 10,2 8,7 6,2 7,2 14 8 24 13 WZW 1003,9 3,0 0 0,0
07.12.2018 10:00:00 9,9 9,7 9,8 8,1 6,1 7,2 16 8 29 15 WZW 1004,3 12 0 0,1
07.12.2018 09:00:00 9,8 9,6 9,6 7,9 5,9 7,2 14 8 29 16 ZW 1004,7 4,7 0 0,0
07.12.2018 08:00:00 9,3 9,0 9,0 7,8 5,8 7,2 20 11 36 19 W 1004,9 8 0 0,0
07.12.2018 07:00:00 10,0 9,6 9,6 7,9 5,6 7,2 24 13 41 22 W 1004,9 16 0 0,1
07.12.2018 06:00:00 10,0 9,7 9,7 7,7 5,3 7,2 28 15 39 21 W 1005,0 3,8 0 0,1
07.12.2018 05:00:00 10,0 9,5 9,7 7,5 5,1 7,2 24 13 38 20 WZW 1005,1 12 0 0,0
07.12.2018 04:00:00 9,4 9,2 9,2 7,1 4,9 7,2 18 10 38 21 ZW 1005,7 6 0 0,2
07.12.2018 03:00:00 9,1 9,0 8,9 6,7 4,6 7,2 18 10 29 16 ZW 1006,5 2,3 0 0,4
07.12.2018 02:00:00 8,7 8,7 8,5 6,2 4,4 7,2 17 9 29 15 ZZW 1006,9 2,0 0 0,9
07.12.2018 01:00:00 8,4 8,4 8,2 5,8 4,2 7,2 16 8 29 15 ZW 1008,1 2,6 0 0,2
07.12.2018 00:00:00 7,4 7,4 7,2 5,4 4,0 7,2 13 7 24 13 ZZW 1008,5 1,8 0 0,1
06.12.2018 23:00:00 7,3 7,3 7,1 5,1 3,8 7,2 15 8 28 15 ZW 1009,3 1,8 0 0,0
06.12.2018 22:00:00 6,5 6,5 6,4 4,6 3,6 7,3 16 9 31 17 ZW 1009,9 2,3 0 0,0
06.12.2018 21:00:00 5,7 5,7 5,5 4,0 3,5 7,3 15 8 29 15 ZW 1010,5 1,9 0 0,0
06.12.2018 20:00:00 4,8 4,7 4,7 3,7 3,4 7,3 12 7 26 14 ZW 1010,9 3,7 0 0,0
06.12.2018 19:00:00 4,2 4,1 4,1 3,4 3,3 7,3 16 9 24 13 ZZW 1011,5 1,8 0 0,3
06.12.2018 18:00:00 3,8 3,6 3,6 3,2 3,3 7,3 15 8 26 14 ZZW 1012,0 2,0 0 0,1
06.12.2018 17:00:00 3,5 2,7 3,2 3,0 3,2 7,3 14 7 27 14 ZZW 1012,3 6 0 0,1
06.12.2018 16:00:00 3,3 2,2 2,9 3,0 3,1 7,3 14 8 25 14 ZZW 1012,8 10 0 0,0
06.12.2018 15:00:00 3,1 2,0 2,7 3,0 3,0 7,3 13 7 27 15 ZZW 1012,9 7 0 0,0
06.12.2018 14:00:00 3,0 1,4 2,7 3,0 2,9 7,3 13 7 25 13 Z 1013,3 20 0 0,0
06.12.2018 13:00:00 2,8 1,4 2,6 2,9 2,7 7,3 13 7 27 15 Z 1013,8 20 0 0,0
06.12.2018 12:00:00 2,2 1,1 2,0 2,6 2,6 7,3 16 9 34 18 Z 1014,4 12 0 0,1
06.12.2018 11:00:00 2,1 1,2 2,0 2,2 2,4 7,4 15 8 29 16 Z 1015,7 4,2 0 0,3
06.12.2018 10:00:00 2,2 0,7 1,7 1,8 2,3 7,4 13 7 29 16 Z 1016,5 9 0 0,0
06.12.2018 09:00:00 2,1 0,4 1,6 1,4 2,3 7,4 15 8 29 15 ZZO 1016,1 15 0 0,3
06.12.2018 08:00:00 2,1 0,3 1,3 1,1 2,2 7,4 16 9 28 15 ZZO 1016,3 11 0 0,4
06.12.2018 07:00:00 2,4 -0,1 1,6 0,7 2,2 7,4 17 9 32 17 ZZO 1016,4 17 0 0,0
06.12.2018 06:00:00 2,3 -0,6 2,0 0,5 2,2 7,4 17 9 33 18 ZZO 1016,9 24 0 0,0
06.12.2018 05:00:00 2,1 -0,5 1,6 0,4 2,3 7,4 14 8 29 15 ZZO 1017,5 26 0 0,0
06.12.2018 04:00:00 2,1 -0,4 1,6 0,4 2,3 7,4 14 7 26 14 ZZO 1018,3 24 0 0,0
06.12.2018 03:00:00 2,1 -0,2 1,4 0,4 2,3 7,4 14 7 24 13 Z 1019,0 27 0 0,0
06.12.2018 02:00:00 1,8 -0,3 1,2 0,4 2,4 7,4 12 7 23 13 Z 1019,7 27 0 0,0
06.12.2018 01:00:00 1,8 0,1 1,0 0,4 2,5 7,4 9 5 19 10 ZZO 1020,8 23 0 0,0
06.12.2018 00:00:00 1,6 -0,1 0,4 0,5 2,5 7,4 10 5 23 12 ZZO 1021,7 23 0 0,0
05.12.2018 23:00:00 1,7 -0,2 0,7 0,5 2,6 7,4 13 7 21 12 Z 1022,7 23 0 0,0
05.12.2018 22:00:00 1,7 0,2 0,8 0,5 2,7 7,4 12 6 22 12 Z 1023,2 19 0 0,0
05.12.2018 21:00:00 1,7 0,5 0,4 0,5 2,8 7,4 13 7 23 12 Z 1023,4 23 0 0,0
05.12.2018 20:00:00 2,2 0,6 0,9 0,5 2,9 7,4 14 7 23 13 ZZW 1023,8 21 0 0,0
05.12.2018 19:00:00 2,2 0,8 0,7 0,2 3,1 7,5 13 7 21 11 Z 1024,3 22 0 0,0
05.12.2018 18:00:00 2,4 0,5 0,1 0,7 3,3 7,5 10 5 20 11 ZZW 1024,7 20 0 0,0
05.12.2018 17:00:00 2,9 0,7 1,3 1,3 3,5 7,5 11 6 18 10 ZW 1025,0 19 0 0,0

tt = temperatuur
td = dauwpunt
tt 5cm = temperatuur 5cm
tt -5cm = temperatuur -5cm
tt -20cm = temperatuur -20cm
tt -100cm = temperatuur -100cm
ff = windsnelheid
fx = windstoten
dd = windrichting
ppp = luchtdruk
vv = zicht
sd = Zonneschijnduur
rr = neerslag

Weerstations in de omgeving